Location: Huesca
(42.1318°N, 0.4078°W)
Time: 06:31:45
(UTC+01:00)

ISS - Visible Passes

Search period start: 05 December 2023 00:00
Search period end: 15 December 2023 00:00
Orbit: 415 x 417 km, 51.6° (Epoch: 05 December)

Date Brightness Start Highest point End Pass type
(mag) Time Alt. Az. Time Alt. Az. Time Alt. Az.
05 Dec -3.8 18:15:49 10° NW 18:19:11 89° SSW 18:22:32 10° SE visible
05 Dec -0.5 19:54:30 10° WSW 19:55:25 11° SW 19:56:20 10° SW visible
06 Dec -0.9 19:04:34 10° W 19:07:00 19° SW 19:09:25 10° S visible
07 Dec -1.7 18:15:26 10° WNW 18:18:27 32° SW 18:21:28 10° SSE visible
09 Dec -0.2 18:15:54 10° WSW 18:17:16 12° SW 18:18:38 10° SSW visible
14 Dec -0.6 07:41:45 10° S 07:44:08 18° SE 07:46:31 10° E visible
